カタログに戻る

ONEWEB-0259

運用中通信PO
NORAD 48977·PAYLOAD·🇬🇧 United Kingdom

打ち上げ Jul 1, 2021 から Vostochny Cosmodrome

Loading…

次のパス (今後24時間)

TLE

最新Source: CelesTrak SupGP

元期: Sep 14, 2026, 13:37 UTC

1 48977C 21060L   26257.56786296 -.00001045  00000+0 -27379-2 0  2573
2 48977  87.9158 211.0346 0001954  75.4472  26.1716 13.16596004    19

AllMySatでONEWEB-0259をリアルタイム追跡

Download on the App Store